| time (UTC) | temp C | wind direction | speed KPH | gust KPH | rain 1hr cm | rain 24hr cm | rain mn cm | humidity % | barometer mb |
| 20260504190056 | 26 | 197 | 8.0 | 16.1 | 0.00 | 0.00 | 0.00 | 37 | 1015.7 |
| 20260504184615 | 26 | 222 | 9.7 | 19.3 | 0.00 | 0.00 | 0.00 | 41 | 1015.7 |
| 20260504183050 | 25 | 212 | 6.4 | 16.1 | 0.00 | 0.00 | 0.00 | 39 | 1016.0 |
| 20260504181549 | 25 | 185 | 11.3 | 20.9 | 0.00 | 0.00 | 0.00 | 37 | 1016.3 |
| 20260504180053 | 26 | 265 | 9.7 | 19.3 | 0.00 | 0.00 | 0.00 | 42 | 1016.5 |
| 20260504174554 | 25 | 170 | 8.0 | 16.1 | 0.00 | 0.00 | 0.00 | 38 | 1016.7 |
| 20260504173054 | 25 | 249 | 4.8 | 14.5 | 0.00 | 0.00 | 0.00 | 38 | 1016.8 |
| 20260504171554 | 25 | 262 | 3.2 | 16.1 | 0.00 | 0.00 | 0.00 | 42 | 1016.9 |
| 20260504140107 | 18 | 263 | 1.6 | 6.4 | 0.00 | 0.00 | 0.00 | 80 | 1018.2 |
| 20260504120108 | 8 | 0 | 0.0 | 3.2 | 0.00 | 0.00 | 0.00 | 96 | 1018.1 |
| 20260504110104 | 7 | 0 | 0.0 | 1.6 | 0.00 | 0.00 | 0.00 | 96 | 1017.4 |
| 20260504081551 | 9 | 0 | 0.0 | 1.6 | 0.00 | 0.00 | 0.00 | 95 | 1018.0 |
| 20260504044554 | 11 | 311 | 0.0 | 3.2 | 0.00 | 0.00 | 0.00 | 93 | 1019.1 |
| 20260504043057 | 11 | 311 | 0.0 | 6.4 | 0.00 | 0.00 | 0.00 | 93 | 1019.2 |
| 20260504041556 | 11 | 12 | 0.0 | 3.2 | 0.00 | 0.00 | 0.00 | 93 | 1019.2 |
| 20260504040058 | 12 | 0 | 0.0 | 4.8 | 0.00 | 0.00 | 0.00 | 92 | 1019.2 |
| 20260504034550 | 12 | 272 | 1.6 | 3.2 | 0.00 | 0.00 | 0.00 | 92 | 1019.3 |
| 20260504033104 | 12 | 277 | 0.0 | 3.2 | 0.00 | 0.00 | 0.00 | 92 | 1019.1 |
| 20260504031601 | 13 | 357 | 0.0 | 3.2 | 0.00 | 0.00 | 0.00 | 91 | 1019.0 |
| 20260504030051 | 13 | 357 | 0.0 | 3.2 | 0.00 | 0.00 | 0.00 | 91 | 1018.9 |
| 20260504024601 | 13 | 0 | 0.0 | 3.2 | 0.00 | 0.00 | 0.00 | 89 | 1018.9 |
| 20260504023056 | 14 | 0 | 0.0 | 1.6 | 0.00 | 0.00 | 0.00 | 89 | 1018.8 |
| 20260504021557 | 14 | 357 | 1.6 | 3.2 | 0.00 | 0.00 | 0.00 | 88 | 1018.8 |
| 20260504020052 | 15 | 0 | 0.0 | 1.6 | 0.00 | 0.00 | 0.00 | 86 | 1018.7 |
| 20260504014552 | 15 | 0 | 0.0 | 3.2 | 0.00 | 0.00 | 0.00 | 84 | 1018.5 |
| 20260504013104 | 16 | 34 | 0.0 | 3.2 | 0.00 | 0.00 | 0.00 | 81 | 1018.3 |
| 20260504011553 | 16 | 34 | 1.6 | 3.2 | 0.00 | 0.00 | 0.00 | 78 | 1018.1 |
| 20260504010057 | 17 | 0 | 0.0 | 0.0 | 0.00 | 0.00 | 0.00 | 74 | 1018.1 |
| 20260504004601 | 18 | 0 | 0.0 | 1.6 | 0.00 | 0.00 | 0.00 | 70 | 1018.0 |
| 20260504003100 | 19 | 0 | 0.0 | 1.6 | 0.00 | 0.00 | 0.00 | 68 | 1017.8 |
| 20260504001554 | 20 | 72 | 0.0 | 1.6 | 0.00 | 0.00 | 0.00 | 63 | 1017.8 |
| 20260504000054 | 21 | 0 | 0.0 | 3.2 | 0.00 | 0.00 | 0.00 | 54 | 1017.9 |
| 20260503234552 | 22 | 50 | 0.0 | 4.8 | 0.00 | 0.00 | 0.00 | 50 | 1017.9 |
| 20260503233055 | 22 | 0 | 0.0 | 8.0 | 0.00 | 0.00 | 0.00 | 46 | 1018.0 |
| 20260503231555 | 23 | 224 | 3.2 | 12.9 | 0.00 | 0.00 | 0.00 | 43 | 1017.9 |
| 20260503230054 | 23 | 189 | 1.6 | 6.4 | 0.00 | 0.00 | 0.00 | 42 | 1017.8 |
| 20260503224551 | 23 | 335 | 1.6 | 6.4 | 0.00 | 0.00 | 0.00 | 44 | 1017.9 |
| 20260503223057 | 24 | 285 | 6.4 | 16.1 | 0.00 | 0.00 | 0.00 | 42 | 1017.9 |
| 20260503221558 | 25 | 266 | 4.8 | 14.5 | 0.00 | 0.00 | 0.00 | 40 | 1018.0 |
| 20260503214551 | 25 | 264 | 1.6 | 19.3 | 0.00 | 0.00 | 0.00 | 40 | 1018.3 |
| 20260503213052 | 25 | 265 | 4.8 | 14.5 | 0.00 | 0.00 | 0.00 | 42 | 1018.3 |
| 20260503211600 | 24 | 0 | 8.0 | 16.1 | 0.00 | 0.00 | 0.00 | 41 | 1018.5 |
| 20260503210054 | 24 | 38 | 1.6 | 9.7 | 0.00 | 0.00 | 0.00 | 41 | 1018.8 |
| 20260503204551 | 25 | 245 | 3.2 | 16.1 | 0.00 | 0.00 | 0.00 | 42 | 1019.0 |
| 20260503203053 | 25 | 355 | 3.2 | 12.9 | 0.00 | 0.00 | 0.00 | 44 | 1019.3 |
| 20260503201556 | 25 | 322 | 3.2 | 16.1 | 0.00 | 0.00 | 0.00 | 40 | 1019.5 |
| 20260503200053 | 24 | 311 | 8.0 | 16.1 | 0.00 | 0.00 | 0.00 | 41 | 1019.7 |
| 20260503194553 | 24 | 332 | 4.8 | 19.3 | 0.00 | 0.00 | 0.00 | 43 | 1020.1 |
| 20260503193056 | 24 | 238 | 8.0 | 22.5 | 0.00 | 0.00 | 0.00 | 41 | 1020.5 |
| 20260503191554 | 24 | 293 | 3.2 | 14.5 | 0.00 | 0.00 | 0.00 | 39 | 1020.6 |